Voltar ao catálogo

STARLINK-36405

AtivoComunicaçõesVLEO
NORAD 67921·PAYLOAD·🇺🇸 United States

Lançado Feb 22, 2026 de Vandenberg Space Force Base

Loading…

Próximas Passagens (próximas 24 horas)

TLE

AtualizadoSource: CelesTrak SupGP

Época: Sep 15, 2026, 04:07 UTC

1 67921C 26036T   26258.17201389 -.00039516  00000+0 -14324-2 0  2585
2 67921  42.9995 255.4698 0001370 266.5937 237.3291 15.27571998    15

Acompanhe STARLINK-36405 em tempo real com AllMySat

Download on the App Store